Mason City, IA

7:48 AM CST on December 13, 2017 (GMT -0600)
Mason City Municipal

Weather History for KMCW - February, 2014

Change the Weather History Date:

Wednesday, February 5, 2014

  Actual Average Record
Temperature  
Mean Temperature 0 °F 18 °F  
Max Temperature 5 °F 27 °F 53 °F (1964)
Min Temperature -5 °F 9 °F -28 °F (1936)
Degree Days  
Heating Degree Days 65 47  
Month to date heating degree days 298 239  
Since 1 July heating degree days 5268 4850  
Cooling Degree Days 0 0  
Month to date cooling degree days 0 0  
Year to date cooling degree days 0 0  
Moisture  
Dew Point -5 °F    
Average Humidity 78    
Maximum Humidity 87    
Minimum Humidity 68    
Precipitation  
Precipitation T in 0.03 in 0.54 in (1938)
Month to date precipitation 0.02 0.16  
Year to date precipitation 0.85 0.98  
Snow  
Snow T in 0.30 in 4.00 in (1911)
Month to date snowfall 1.1 1.7  
Since 1 July snowfall 26.7 26.5  
Snow Depth 10.00 in    
Sea Level Pressure  
Sea Level Pressure 30.48 in    
Wind  
Wind Speed 20 mph (NNW)    
Max Wind Speed 30 mph    
Max Gust Speed 35 mph    
Visibility 5 miles    
Events Snow    
T = Trace of Precipitation, MM = Missing Value Source: NWS Daily Summary

Daily Weather History Graph

Daily Weather History Graph

Search for Another Location

Airport or City:

Trip Planner

Search our weather history database for the weather conditions in past years. The results will help you decide how hot, cold, wet, or windy it might be!

Date:

Astronomy

Feb. 05, 2014 Rise Set
Actual Time 7:24 AM CST 5:31 PM CST
Civil Twilight 6:54 AM CST 6:01 PM CST
Nautical Twilight 6:20 AM CST 6:34 PM CST
Astronomical Twilight 5:47 AM CST 7:08 PM CST
Moon 10:27 AM CST (2/5) No Moon Set
Length of Visible Light 11h 06m
Length of Day
10h 06m
Waxing Crescent, 39% of the Moon is Illuminated
Feb 5
Waxing Crescent
Feb 6
First Quarter
Feb 14
Full
Feb 22
Last Quarter
Mar 1
New

Hourly Weather History & Observations

Time (CST) Temp. Windchill Dew Point Humidity Pressure Visibility Wind Dir Wind Speed Gust Speed Precip Events Conditions
12:53 AM 3.9 °F -18.5 °F -2.9 °F 73% 30.41 in 9.0 mi North 24.2 mph - N/A   Overcast
1:53 AM 3.0 °F -19.7 °F -2.9 °F 76% 30.42 in 4.0 mi North 24.2 mph - N/A   Haze
2:31 AM 1.9 °F -21.6 °F -2.0 °F 83% 30.35 in 2.5 mi North 25.3 mph - 0.00 in   Overcast
2:43 AM 1.9 °F -21.6 °F -2.0 °F 83% 30.35 in 3.0 mi North 25.3 mph 32.2 mph 0.00 in   Overcast
2:53 AM 1.9 °F -22.4 °F -2.0 °F 83% 30.42 in 3.0 mi North 27.6 mph - 0.00 in   Overcast
3:20 AM 1.9 °F -22.0 °F -2.9 °F 80% 30.35 in 2.5 mi North 26.5 mph - 0.00 in   Unknown
3:49 AM 1.4 °F -21.9 °F -2.2 °F 85% 30.35 in 2.5 mi North 24.2 mph - 0.00 in   Mist
3:53 AM 1.0 °F -21.9 °F -2.9 °F 83% 30.42 in 2.5 mi North 23.0 mph 32.2 mph 0.00 in   Overcast
4:07 AM 1.0 °F -22.4 °F -4.0 °F 79% 30.35 in 3.0 mi NNW 24.2 mph 31.1 mph 0.00 in   Overcast
4:53 AM -0.0 °F -24.3 °F -4.0 °F 83% 30.44 in 4.0 mi NNW 25.3 mph - 0.00 in   Overcast
5:18 AM -0.0 °F -25.9 °F -5.1 °F 79% 30.38 in 2.5 mi NNW 29.9 mph 34.5 mph 0.00 in   Overcast
5:36 AM -0.0 °F -23.8 °F -5.1 °F 79% 30.38 in 3.0 mi NNW 24.2 mph 32.2 mph 0.00 in   Overcast
5:53 AM -0.0 °F -24.7 °F -5.1 °F 79% 30.47 in 2.5 mi NNW 26.5 mph - 0.00 in   Overcast
6:00 AM -0.0 °F -22.9 °F -5.1 °F 79% 30.39 in 3.0 mi NNW 21.9 mph - 0.00 in   Overcast
6:13 AM -0.9 °F -25.0 °F -6.0 °F 79% 30.40 in 4.0 mi NNW 24.2 mph - 0.00 in   Overcast
6:44 AM -0.9 °F -23.5 °F -6.0 °F 79% 30.40 in 4.0 mi NNW 20.7 mph - 0.00 in   Overcast
6:53 AM -0.9 °F -26.3 °F -6.0 °F 79% 30.48 in 3.0 mi NNW 27.6 mph 32.2 mph 0.00 in   Overcast
7:38 AM -0.9 °F -25.5 °F -6.0 °F 79% 30.41 in 2.0 mi NNW 25.3 mph - 0.00 in   Overcast
7:53 AM -0.9 °F -24.5 °F -6.0 °F 79% 30.51 in 2.0 mi NNW 23.0 mph - 0.00 in   Overcast
8:22 AM -0.0 °F -23.8 °F -6.0 °F 76% 30.44 in 3.0 mi NNW 24.2 mph - 0.00 in   Overcast
8:53 AM -0.0 °F -21.8 °F -7.1 °F 72% 30.53 in 5.0 mi NNW 19.6 mph - 0.00 in   Haze
9:53 AM 1.0 °F -22.8 °F -6.0 °F 72% 30.55 in 6.0 mi NNW 25.3 mph - N/A   Haze
10:53 AM 1.9 °F -19.8 °F -6.0 °F 69% 30.56 in 8.0 mi NNW 20.7 mph - N/A   Mostly Cloudy
11:53 AM 1.9 °F -19.2 °F -6.0 °F 69% 30.56 in 10.0 mi NNW 19.6 mph - N/A   Scattered Clouds
12:32 PM 3.0 °F -17.8 °F -5.1 °F 69% 30.47 in 10.0 mi NNW 19.6 mph - N/A   Mostly Cloudy
12:53 PM 3.0 °F -17.8 °F -5.1 °F 69% 30.55 in 10.0 mi NW 19.6 mph - N/A   Mostly Cloudy
1:53 PM 3.9 °F -17.6 °F -4.0 °F 70% 30.55 in 8.0 mi NW 21.9 mph - N/A   Mostly Cloudy
2:53 PM 3.9 °F -17.6 °F -2.9 °F 73% 30.55 in 6.0 mi NW 21.9 mph - N/A   Haze
3:42 PM 3.9 °F -15.6 °F -2.0 °F 76% 30.48 in 1.5 mi NNW 17.3 mph - N/A   Haze
3:50 PM 3.2 °F -17.1 °F -0.4 °F 85% 30.48 in 0.8 mi NW 18.4 mph - 0.00 in Snow Light Snow
3:53 PM 3.9 °F -16.1 °F -2.0 °F 76% 30.57 in 1.0 mi NW 18.4 mph - 0.00 in Snow Light Snow
4:15 PM 3.9 °F -15.0 °F -2.0 °F 76% 30.49 in 3.0 mi NW 16.1 mph - 0.00 in   Haze
4:21 PM 3.9 °F -16.1 °F -2.9 °F 73% 30.49 in 2.5 mi NNW 18.4 mph - 0.00 in   Haze
4:29 PM 3.9 °F -16.1 °F -4.0 °F 70% 30.49 in 5.0 mi NW 18.4 mph - 0.00 in   Haze
4:53 PM 3.0 °F -16.7 °F -5.1 °F 69% 30.58 in 10.0 mi NW 17.3 mph - 0.00 in   Mostly Cloudy
5:17 PM 1.9 °F -19.2 °F -7.1 °F 66% 30.50 in 10.0 mi NW 19.6 mph - N/A   Scattered Clouds
5:53 PM 1.0 °F -16.6 °F -4.0 °F 79% 30.60 in 10.0 mi NW 12.7 mph - N/A   Clear
6:53 PM -0.0 °F -19.4 °F -6.0 °F 76% 30.60 in 10.0 mi WNW 15.0 mph - N/A   Partly Cloudy
7:53 PM -2.0 °F -21.9 °F -7.1 °F 79% 30.61 in 10.0 mi WNW 15.0 mph - N/A   Clear
8:53 PM -2.9 °F -20.8 °F -8.0 °F 79% 30.61 in 10.0 mi WNW 11.5 mph - N/A   Clear
9:53 PM -2.9 °F -19.8 °F -9.0 °F 75% 30.59 in 10.0 mi WNW 10.4 mph - N/A   Clear
10:53 PM -4.0 °F -23.0 °F -9.0 °F 79% 30.59 in 10.0 mi NW 12.7 mph - N/A   Clear
11:53 PM -5.1 °F -25.9 °F -9.9 °F 80% 30.58 in 10.0 mi NW 15.0 mph - N/A   Clear